[[{"header":{"parameterUnit":"m.s-1","parameterCategory":1,"la1":30.2991,"la2":30.254,"lo1":-89.0895,"lo2":-89.0444,"dy":0.0017,"dx":0.0017,"nx":28,"ny":28,"refTime":"2023-08-17T03:00:00:Z","depth":0,"parameterNumber":2,"parameterNumberName":"U-component_of_WINDS"},"data":[0,0,0,0,0,0,0,0,0,0,0,0,0,0,0,0,0,0,0,0,0,0,0,0,0,0,0,0,0,0,0,0,0,0,0,0,0,0,0,0,0,0,0,0,0,0,0,0,0,0,0,0,0,0,0,0,0,0,0.2702,0.2703,0,0.2795,0.2796,0.2797,0.284,0.284,0.2839,0.2839,0.2935,0.2937,0.294,0,0,0,0,0,0,0,0,0,0,0,0,0,0.2558,0.2561,0.2702,0.2703,0.2704,0.2795,0.2796,0.2798,0.284,0.284,0.2839,0.2839,0.2934,0.2937,0.294,0,0,0,0,0,0,0,0,0,0,0,0,0,0.2633,0.2561,0.2702,0.2736,0.274,0.2795,0.2796,0.2798,0.284,0.284,0.2839,0.2839,0.2933,0.2937,0.2941,0.2968,0,0,0.2953,0.2955,0,0,0,0,0,0,0,0,0.2629,0.2638,0.273,0.2734,0.2738,0.2806,0.2781,0.2855,0.284,0.2802,0.2839,0.2839,0.2892,0.2899,0.2917,0.2973,0.2977,0.2953,0.2956,0.2957,0.2958,0,0,0,0,0,0,0,0.2623,0.2634,0.2739,0.2731,0.2736,0.2746,0.2757,0.2795,0.2847,0.2805,0.2808,0.2819,0.2894,0.2913,0.292,0.2978,0.2953,0.2957,0.2959,0.2961,0.3059,0.3059,0,0,0,0,0,0,0.2613,0.263,0.2736,0.2742,0.2682,0.2749,0.2761,0.2784,0.2846,0.2856,0.2819,0.2821,0.2907,0.2915,0.2923,0.2959,0.2957,0.2961,0.2963,0.3059,0.3059,0.3059,0,0,0,0,0,0,0.2609,0.2622,0.2732,0.2687,0.2701,0.2752,0.2778,0.2786,0.2805,0.2857,0.2866,0.2829,0.2907,0.2918,0.2956,0.2963,0.2963,0.2966,0.3059,0.3059,0.3059,0.303,0,0,0,0,0,0,0.2605,0.262,0.2632,0.2687,0.2704,0.2764,0.2778,0.2788,0.2812,0.2815,0.2869,0.2877,0.2908,0.295,0.296,0.2968,0.2969,0.3058,0.3059,0.3059,0.3031,0.3029,0.3028,0,0,0,0,0,0.26,0.262,0.2632,0.2645,0.2719,0.2764,0.2774,0.2808,0.2812,0.2824,0.2857,0.2876,0.296,0.2954,0.2966,0.2975,0.3058,0.3059,0.3059,0.3031,0.303,0.3028,0,0,0,0,0,0,0.2565,0.2628,0.2642,0.2681,0.2717,0.2771,0.2787,0.2806,0.2842,0.2843,0.2884,0.2895,0.293,0.2956,0.2948,0.3003,0.3011,0.3014,0.2985,0.2984,0.2983,0.2976,0.2973,0,0,0,0,0,0.2562,0.2594,0.2647,0.2676,0.2693,0.2737,0.2758,0.2781,0.282,0.2835,0.2871,0.2908,0.2943,0.2965,0.3,0.3034,0.3046,0.3046,0.3045,0.3043,0.3046,0.3064,0.3065,0.3061,0.3061,0.3061,0,0,0.2556,0.2594,0.2612,0.267,0.2701,0.2732,0.275,0.2782,0.2806,0.284,0.2879,0.2906,0.295,0.2986,0.3004,0.3009,0.3049,0.3044,0.3043,0.3046,0.3065,0.3065,0.3065,0.3062,0.3062,0.3061,0,0,0.2561,0.2593,0.2621,0.2651,0.2696,0.2725,0.2731,0.2783,0.2802,0.2841,0.2867,0.2895,0.2955,0.2984,0.3007,0.3021,0.3039,0.3031,0.3025,0.3042,0.3043,0.3043,0.3047,0.3048,0.3033,0.3033,0.3033,0,0.2548,0.2597,0.2632,0.2663,0.2687,0.2719,0.2746,0.2774,0.2828,0.2844,0.2849,0.2923,0.2955,0.2997,0.3,0.3018,0.3026,0.3025,0.304,0.3041,0.3042,0.3046,0.3047,0.3031,0.3031,0.3032,0.3032,0,0.2577,0.2611,0.2627,0.2678,0.2704,0.2733,0.2772,0.2794,0.2814,0.2842,0.288,0.2919,0.2962,0.2974,0.2994,0.3019,0.3021,0.3032,0.304,0.304,0.3045,0.3047,0.3029,0.303,0.303,0.3031,0,0,0.2565,0.2634,0.264,0.2663,0.2715,0.2741,0.277,0.2812,0.2829,0.2865,0.2891,0.2939,0.2949,0.2975,0.2999,0.3014,0.3021,0.3024,0.3025,0.3021,0.305,0.3041,0.3043,0.3033,0.3034,0.3034,0.3046,0,0.2577,0.2632,0.2663,0.2705,0.2735,0.2765,0.2791,0.2825,0.2851,0.288,0.2909,0.2942,0.2953,0.2969,0.2985,0.3017,0.3027,0.3016,0.3057,0.3058,0.3045,0.3045,0.3037,0.3046,0.3048,0.3049,0.3049,0,0.2598,0.2633,0.2677,0.2724,0.2738,0.2761,0.2801,0.2828,0.2867,0.2885,0.2912,0.2935,0.2967,0.2972,0.3015,0.3007,0.3025,0.3042,0.3044,0.3049,0.3054,0.305,0.305,0.3051,0.3052,0.3052,0.3052,0,0.2584,0.2642,0.2676,0.2694,0.275,0.2765,0.2789,0.2828,0.285,0.2884,0.2899,0.2936,0.2957,0.2985,0.3017,0.3018,0.3057,0.3065,0.3072,0.3071,0.308,0.3079,0.3082,0.3091,0.3091,0.3091,0.3091,0,0.2594,0.2619,0.267,0.269,0.272,0.2755,0.2783,0.2809,0.2843,0.2869,0.2896,0.292,0.2961,0.2989,0.3015,0.3046,0.3055,0.307,0.3077,0.3068,0.3066,0.3081,0.3081,0.3091,0.3091,0.3091,0.3091,0,0.2583,0.2618,0.2656,0.2705,0.2718,0.2737,0.2779,0.28,0.2827,0.2859,0.2868,0.291,0.2945,0.298,0.3027,0.3043,0.3074,0.3083,0.3061,0.3065,0.307,0.3069,0.3083,0.3086,0.3093,0.3092,0.3092,0,0.2587,0.2608,0.2658,0.2678,0.2701,0.2731,0.2754,0.2789,0.2811,0.2856,0.2871,0.2907,0.2938,0.2992,0.3026,0.3062,0.3071,0.3074,0.3077,0.3067,0.3071,0.3069,0.3071,0.3073,0.3072,0.3072,0.3072,0,0.259,0.2606,0.2638,0.2675,0.2701,0.2732,0.2764,0.2777,0.2819,0.2842,0.2877,0.2901,0.2948,0.2983,0.3023,0.3047,0.3066,0.307,0.3074,0.3065,0.3052,0.3059,0.3057,0.307,0.307,0.3071,0.3071,0.3071,0.2587,0.2606,0.2645,0.2678,0.2706,0.2735,0.2756,0.2785,0.2815,0.2856,0.2875,0.291,0.2946,0.3001,0.3024,0.3052,0.3057,0.3062,0.3064,0.3064,0.3062,0.3047,0.3059,0.3059,0.3059,0.3059,0.3059,0,0.2592,0.2618,0.2648,0.2691,0.2718,0.2733,0.2768,0.2789,0.282,0.2852,0.2882,0.2921,0.2955,0.2992,0.3028,0.3043,0.3052,0.3051,0.305,0.3055,0.3055,0.3049,0.3042,0.3042,0.3042,0.3042,0.3042,0.3042,0.2597,0.263,0.265,0.2696,0.2721,0.2756,0.2775,0.2801,0.2827,0.287,0.2898,0.2921,0.2955,0.2993,0.3025,0.3035,0.3046,0.3042,0.3055,0.3054,0.3055,0.3057,0.305,0.3045,0.3045,0.3052,0.3052,0.3052]},{"header":{"parameterUnit":"m.s-1","parameterCategory":1,"la1":30.2991,"la2":30.254,"lo1":-89.0895,"lo2":-89.0444,"dy":0.0017,"dx":0.0017,"nx":28,"ny":28,"refTime":"2023-08-17T03:00:00:Z","depth":0,"parameterNumber":3,"parameterNumberName":"V-component_of_WINDS"},"data":[0,0,0,0,0,0,0,0,0,0,0,0,0,0,0,0,0,0,0,0,0,0,0,0,0,0,0,0,0,0,0,0,0,0,0,0,0,0,0,0,0,0,0,0,0,0,0,0,0,0,0,0,0,0,0,0,0,0,5.6097,5.6096,0,5.6026,5.6025,5.6024,5.5915,5.5913,5.5911,5.5909,5.5836,5.5836,5.5836,0,0,0,0,0,0,0,0,0,0,0,0,0,5.614,5.614,5.6097,5.6096,5.6095,5.6026,5.6025,5.6024,5.5915,5.5913,5.5911,5.5908,5.5836,5.5836,5.5836,0,0,0,0,0,0,0,0,0,0,0,0,0,5.6101,5.614,5.6097,5.6033,5.6026,5.6026,5.6025,5.6023,5.5916,5.5913,5.591,5.5907,5.5836,5.5836,5.5836,5.5893,0,0,5.5835,5.5835,0,0,0,0,0,0,0,0,5.6103,5.6099,5.6043,5.6037,5.603,5.5976,5.6013,5.598,5.5917,5.5958,5.5909,5.5906,5.5885,5.5881,5.5874,5.5889,5.5886,5.5835,5.5835,5.5835,5.5835,0,0,0,0,0,0,0,5.6106,5.6102,5.6069,5.6043,5.6035,5.6008,5.5999,5.6006,5.5939,5.5954,5.5946,5.5939,5.5881,5.5874,5.5871,5.5885,5.5835,5.5835,5.5835,5.5835,5.5943,5.5945,0,0,0,0,0,0,5.6118,5.6105,5.6071,5.6067,5.606,5.6009,5.5999,5.5996,5.5938,5.5927,5.5942,5.5934,5.5876,5.5872,5.5868,5.593,5.5835,5.5835,5.5835,5.594,5.5943,5.5946,0,0,0,0,0,0,5.612,5.6116,5.6074,5.6083,5.6076,5.6012,5.6009,5.5997,5.5989,5.5929,5.5916,5.5947,5.5874,5.5869,5.5887,5.5926,5.5835,5.5835,5.5936,5.5941,5.5945,5.6054,0,0,0,0,0,0,5.6121,5.6117,5.6138,5.6085,5.6076,5.6094,5.6012,5.5997,5.5989,5.5979,5.5931,5.592,5.5871,5.5888,5.5887,5.5924,5.5835,5.5932,5.5938,5.5943,5.6047,5.6062,5.6075,0,0,0,0,0,5.6123,5.6172,5.614,5.6136,5.6101,5.6097,5.6092,5.6035,5.5993,5.6013,5.5974,5.5921,5.5922,5.5891,5.5889,5.5926,5.593,5.5937,5.5943,5.6041,5.6059,5.6075,0,0,0,0,0,0,5.6232,5.6164,5.6127,5.6161,5.6135,5.6079,5.6102,5.6056,5.6042,5.6033,5.5963,5.5953,5.598,5.5955,5.5922,5.5977,5.5918,5.5924,5.5993,5.601,5.6023,5.6028,5.5834,0,0,0,0,0,5.626,5.6263,5.6203,5.6238,5.6227,5.6168,5.6164,5.6122,5.6093,5.6082,5.6044,5.6018,5.6012,5.6009,5.6001,5.6043,5.603,5.6068,5.6082,5.6094,5.61,5.6119,5.6135,5.5968,5.5968,5.5968,0,0,5.6318,5.6281,5.6287,5.6259,5.6234,5.6238,5.6159,5.6167,5.6169,5.6083,5.6097,5.6069,5.6035,5.6066,5.6078,5.6046,5.6143,5.6102,5.6112,5.6111,5.6128,5.6143,5.6157,5.5973,5.5972,5.5971,0,0,5.6424,5.6397,5.6423,5.64,5.6364,5.6323,5.633,5.628,5.6258,5.6272,5.6207,5.6209,5.62,5.6178,5.6167,5.6265,5.6216,5.6265,5.6337,5.6357,5.637,5.6381,5.6415,5.6428,5.6271,5.6272,5.6272,0,5.65,5.6503,5.6442,5.6453,5.6443,5.6365,5.639,5.6371,5.6335,5.6329,5.6294,5.6282,5.6254,5.6277,5.6302,5.6295,5.6299,5.6269,5.6373,5.6384,5.6393,5.6425,5.6438,5.6278,5.6277,5.6276,5.6276,0,5.6598,5.6602,5.6627,5.6593,5.6585,5.6604,5.6545,5.6545,5.6504,5.6468,5.6483,5.6446,5.6428,5.6431,5.6392,5.6449,5.6431,5.6386,5.6324,5.6416,5.6445,5.6456,5.6286,5.6284,5.6282,5.6281,0,0,5.677,5.6702,5.6712,5.6696,5.665,5.6652,5.6667,5.6649,5.665,5.6628,5.6638,5.6633,5.6591,5.6577,5.6534,5.6552,5.6631,5.6504,5.6502,5.6528,5.6691,5.6725,5.674,5.6599,5.6601,5.6602,5.6694,0,5.6867,5.6888,5.6833,5.6868,5.687,5.6797,5.681,5.6783,5.675,5.6747,5.671,5.6707,5.6652,5.6643,5.6658,5.6619,5.6663,5.6611,5.6607,5.6607,5.6616,5.6755,5.679,5.6878,5.6705,5.6707,5.6708,0,5.6982,5.6965,5.7,5.6952,5.6951,5.6964,5.6943,5.6941,5.691,5.6884,5.687,5.6819,5.683,5.6772,5.6786,5.6752,5.6747,5.6728,5.673,5.6726,5.6662,5.6754,5.6905,5.6918,5.6725,5.6724,5.6723,0,5.7102,5.7089,5.7108,5.7096,5.7041,5.7051,5.7029,5.6995,5.6988,5.697,5.6964,5.6948,5.6939,5.6928,5.6875,5.6837,5.6894,5.6832,5.6873,5.6874,5.6887,5.6887,5.7039,5.6886,5.6886,5.6886,5.6886,0,5.7215,5.7239,5.7161,5.7173,5.7197,5.7135,5.7161,5.7131,5.7101,5.7106,5.7042,5.7047,5.6977,5.6975,5.6933,5.695,5.6947,5.6926,5.6915,5.6931,5.6934,5.6926,5.6918,5.6889,5.6889,5.6888,5.6887,0,5.7353,5.7302,5.7317,5.7264,5.7252,5.7272,5.7226,5.7235,5.7198,5.7204,5.7202,5.7144,5.7138,5.7084,5.7066,5.7038,5.707,5.7048,5.7081,5.7073,5.7117,5.7113,5.7268,5.7284,5.7123,5.7125,5.7126,0,5.7428,5.7444,5.7393,5.7391,5.7372,5.737,5.7363,5.7302,5.7296,5.7262,5.7274,5.7263,5.7251,5.7244,5.72,5.7186,5.7162,5.7217,5.7159,5.7175,5.7161,5.716,5.7161,5.7229,5.7231,5.7233,5.7234,0,5.7565,5.7539,5.753,5.7513,5.7506,5.7489,5.7469,5.7471,5.7404,5.7401,5.7394,5.7385,5.7366,5.7356,5.7334,5.731,5.7261,5.7253,5.7261,5.7278,5.7296,5.7285,5.7113,5.7249,5.7248,5.7247,5.7246,5.7245,5.7672,5.7684,5.7649,5.7642,5.762,5.7603,5.7608,5.7571,5.7565,5.7545,5.7509,5.7508,5.7475,5.744,5.7421,5.7418,5.7389,5.7402,5.7405,5.7409,5.7417,5.7298,5.7414,5.7414,5.7413,5.7413,5.7412,0,5.7805,5.778,5.7774,5.7747,5.7741,5.7696,5.7671,5.7669,5.7668,5.7643,5.7632,5.7624,5.7613,5.7568,5.7553,5.7559,5.7536,5.7557,5.7555,5.755,5.7444,5.7438,5.7576,5.7576,5.7576,5.7576,5.7576,5.7576,5.7874,5.789,5.786,5.7865,5.7839,5.7837,5.7827,5.781,5.7789,5.7783,5.7774,5.7745,5.7711,5.7692,5.768,5.7667,5.7664,5.7692,5.7672,5.7574,5.7558,5.7543,5.7536,5.7693,5.7693,5.7778,5.7778,5.7779]}]]